PA8E-10 Weather Reports


time (UTC)temp
F
wind
direction
speed
knots
gust
knots
rain 1hr
in
rain 24hr
in
rain mn
in
humidity
%
barometer
mb
20260902164016 68 194 4.3 8.7 0.00 0.00 0.00 67 1019.8
20260902161015 68 232 6.1 2.6 0.00 0.00 0.00 66 1020.0
20260902154015 69 219 4.3 8.7 0.00 0.00 0.00 67 1020.1
20260902151015 69 221 3.5 7.0 0.00 0.00 0.00 68 1020.2
20260902144014 69 190 4.3 8.7 0.00 0.00 0.00 65 1020.3
20260902143514 69 217 4.3 8.7 0.00 0.00 0.00 63 1020.4
20260902143014 70 201 3.5 7.8 0.00 0.00 0.00 62 1020.3
20260902142514 70 204 5.2 9.6 0.00 0.00 0.00 61 1020.3
20260902142013 70 218 5.2 8.7 0.00 0.00 0.00 60 1020.4
20260902141513 70 242 5.2 7.8 0.00 0.00 0.00 60 1020.3
20260902141013 70 273 4.3 8.7 0.00 0.00 0.00 60 1020.2
20260902140513 70 212 4.3 7.0 0.00 0.00 0.00 60 1020.3
20260902140013 70 217 4.3 8.7 0.00 0.00 0.00 59 1020.3
20260902135512 71 273 5.2 9.6 0.00 0.00 0.00 58 1020.2
20260902134758 71 210 5.2 11.3 0.00 0.00 0.00 55 1020.2
20260902134257 71 222 7.0 11.3 0.00 0.00 0.00 56 1020.3
20260902133756 73 203 4.3 8.7 0.00 0.00 0.00 56 1020.2
20260902133256 72 277 4.3 10.4 0.00 0.00 0.00 56 1020.2
20260902132759 72 253 4.3 9.6 0.00 0.00 0.00 58 1020.2
20260902132256 72 233 4.3 7.8 0.00 0.00 0.00 61 1020.2
20260902131756 71 290 3.5 8.7 0.00 0.00 0.00 62 1020.2
20260902131255 71 200 5.2 8.7 0.00 0.00 0.00 62 1020.3
20260902130755 71 229 5.2 7.8 0.00 0.00 0.00 64 1020.2
20260902130255 70 224 4.3 8.7 0.00 0.00 0.00 66 1020.3
20260902125755 69 232 4.3 7.8 0.00 0.00 0.00 67 1020.3
20260902125254 69 218 5.2 11.3 0.00 0.00 0.00 66 1020.4
20260902124754 70 215 5.2 10.4 0.00 0.00 0.00 65 1020.3
20260902124254 70 177 4.3 8.7 0.00 0.00 0.00 65 1020.3
20260902123754 70 253 3.5 7.8 0.00 0.00 0.00 69 1020.3
20260902123253 69 236 4.3 7.8 0.00 0.00 0.00 69 1020.2
20260902122753 69 198 4.3 7.8 0.00 0.00 0.00 69 1020.4
20260902122253 69 219 4.3 7.8 0.00 0.00 0.00 70 1020.4
20260902121753 69 224 4.3 8.7 0.00 0.00 0.00 72 1020.3
20260902121253 68 228 4.3 7.8 0.00 0.00 0.00 72 1020.5
20260902120752 68 208 4.3 7.0 0.00 0.00 0.00 73 1020.5
20260902115739 67 214 3.5 9.6 0.00 0.00 0.00 74 1020.6
20260902115239 67 235 3.5 7.0 0.00 0.00 0.00 73 1020.5
20260902114739 68 221 4.3 9.6 0.00 0.00 0.00 72 1020.5
20260902114238 68 226 4.3 8.7 0.00 0.00 0.00 72 1020.6
20260902113620 69 181 2.6 6.1 0.00 0.00 0.00 70 1020.6
20260902113120 69 210 3.5 6.1 0.00 0.00 0.00 69 1020.5
20260902112552 69 295 2.6 5.2 0.00 0.00 0.00 70 1020.5
20260902111924 69 229 5.2 7.8 0.00 0.00 0.00 67 1020.6
20260902111404 70 211 3.5 7.8 0.00 0.00 0.00 67 1020.5
20260902110903 69 210 4.3 8.7 0.00 0.00 0.00 67 1020.5
20260902110403 70 218 6.1 9.6 0.00 0.00 0.00 67 1020.5
20260902105903 70 242 4.3 7.8 0.00 0.00 0.00 67 1020.4
20260902105403 69 215 5.2 9.6 0.00 0.00 0.00 67 1020.5
20260902104741 69 212 4.3 8.7 0.00 0.00 0.00 69 1020.4
20260902104241 70 203 4.3 7.8 0.00 0.00 0.00 69 1020.4
20260902103632 69 183 4.3 8.7 0.00 0.00 0.00 71 1020.4
20260902103128 69 169 4.3 8.7 0.00 0.00 0.00 71 1020.5
20260902102452 69 205 3.5 8.7 0.00 0.00 0.00 73 1020.5
20260902101915 68 201 4.3 7.8 0.00 0.00 0.00 74 1020.5
20260902101831 68 201 4.3 7.8 0.00 0.00 0.00 74 1020.5
20260902101209 68 186 5.2 9.6 0.00 0.00 0.00 74 1020.5
20260902100506 68 221 4.3 6.1 0.00 0.00 0.00 74 1020.5
20260902100006 68 207 3.5 7.0 0.00 0.00 0.00 75 1020.5
20260902095506 68 187 4.3 9.6 0.00 0.00 0.00 75 1020.4
20260902095005 68 232 5.2 10.4 0.00 0.00 0.00 75 1020.4
20260902094505 68 218 4.3 8.7 0.00 0.00 0.00 75 1020.4
20260902094005 68 218 5.2 7.8 0.00 0.00 0.00 76 1020.5
20260902093505 68 225 4.3 8.7 0.00 0.00 0.00 75 1020.5
20260902093004 68 200 2.6 7.0 0.00 0.00 0.00 76 1020.4
20260902092504 68 235 4.3 7.0 0.00 0.00 0.00 76 1020.5
20260902092004 68 215 3.5 6.1 0.00 0.00 0.00 76 1020.4
20260902091504 67 219 3.5 7.0 0.00 0.00 0.00 76 1020.4
20260902091004 67 210 3.5 7.0 0.00 0.00 0.00 77 1020.4
20260902090503 67 235 3.5 7.8 0.00 0.00 0.00 76 1020.4
20260902090004 67 174 3.5 7.0 0.00 0.00 0.00 77 1020.3
20260902085503 68 231 3.5 6.1 0.00 0.00 0.00 77 1020.2
20260902085003 67 124 2.6 7.0 0.00 0.00 0.00 76 1020.2
20260902084502 67 169 3.5 7.8 0.00 0.00 0.00 77 1020.2
20260902084002 67 210 3.5 6.1 0.00 0.00 0.00 77 1020.1
20260902083502 67 233 3.5 6.1 0.00 0.00 0.00 77 1020.1
20260902083002 67 211 3.5 6.1 0.00 0.00 0.00 77 1020.1
20260902082221 66 212 2.6 5.2 0.00 0.00 0.00 79 1020.1
20260902081721 66 118 2.6 7.0 0.00 0.00 0.00 79 1020.1
20260902081153 65 180 3.5 6.1 0.00 0.00 0.00 80 1020.1
20260902080653 65 183 3.5 6.1 0.00 0.00 0.00 80 1020.1
20260902080153 65 173 4.3 7.0 0.00 0.00 0.00 81 1020.1
20260902075653 65 177 3.5 7.0 0.00 0.00 0.00 81 1020.0
20260902075153 64 148 3.5 6.1 0.00 0.00 0.00 81 1019.9
20260902074652 64 212 2.6 4.3 0.00 0.00 0.00 82 1019.9
20260902074151 64 198 2.6 5.2 0.00 0.00 0.00 82 1019.8
20260902073651 63 143 3.5 6.1 0.00 0.00 0.00 83 1019.8
20260902073151 63 165 3.5 7.0 0.00 0.00 0.00 83 1019.8
20260902072651 63 188 3.5 7.8 0.00 0.00 0.00 84 1019.8
20260902072150 62 165 3.5 7.8 0.00 0.00 0.00 84 1019.9
20260902071650 62 177 2.6 4.3 0.00 0.00 0.00 85 1019.9
20260902071150 62 200 3.5 7.0 0.00 0.00 0.00 85 1019.9
20260902070650 62 167 2.6 6.1 0.00 0.00 0.00 85 1019.7
20260902070150 62 173 2.6 4.3 0.00 0.00 0.00 85 1019.8
20260902065649 62 180 3.5 6.1 0.00 0.00 0.00 85 1019.8
20260902065149 61 236 2.6 7.0 0.00 0.00 0.00 86 1019.8
20260902064649 61 170 2.6 5.2 0.00 0.00 0.00 87 1019.7
20260902064149 61 191 2.6 4.3 0.00 0.00 0.00 87 1019.9
20260902063648 60 139 1.7 4.3 0.00 0.00 0.00 87 1020.0
20260902063148 60 203 1.7 4.3 0.00 0.00 0.00 87 1019.8
20260902062940 60 177 1.7 4.3 0.00 0.00 0.00 87 1019.9
20260902062648 60 177 1.7 4.3 0.00 0.00 0.00 87 1019.9
20260902062148 60 142 2.6 4.3 0.00 0.00 0.00 87 1019.8
20260902061646 60 165 2.6 3.5 0.00 0.00 0.00 87 1019.8
20260902061146 60 159 2.6 5.2 0.00 0.00 0.00 87 1019.8
20260902060646 60 173 1.7 4.3 0.00 0.00 0.00 87 1019.9
20260902060146 59 153 2.6 4.3 0.00 0.00 0.00 87 1019.8
20260902055645 59 207 1.7 4.3 0.00 0.00 0.00 87 1019.8
20260902055145 59 201 1.7 2.6 0.00 0.00 0.00 87 1019.7
20260902054645 60 149 1.7 3.5 0.00 0.00 0.00 87 1019.7
20260902054144 59 143 1.7 4.3 0.00 0.00 0.00 87 1019.7
20260902053644 60 166 0.9 2.6 0.00 0.00 0.00 87 1019.7
20260902053144 59 201 0.9 1.7 0.00 0.00 0.00 87 1019.7
20260902052644 60 167 1.7 3.5 0.00 0.00 0.00 87 1019.7
20260902052142 60 167 0.9 2.6 0.00 0.00 0.00 87 1019.7
20260902051641 60 167 1.7 3.5 0.00 0.00 0.00 87 1019.7
20260902051141 60 174 0.9 4.3 0.00 0.00 0.00 86 1019.7
20260902050641 60 174 1.7 4.3 0.00 0.00 0.00 86 1019.7
20260902050140 60 188 1.7 3.5 0.00 0.00 0.00 86 1019.7
20260902045640 60 139 0.9 4.3 0.00 0.00 0.00 86 1019.6
20260902045140 60 145 0.9 3.5 0.00 0.00 0.00 86 1019.6
20260902044640 60 242 1.7 3.5 0.00 0.00 0.00 86 1019.7
20260902044140 60 197 1.7 3.5 0.00 0.00 0.00 86 1019.7
20260902043639 60 170 1.7 3.5 0.00 0.00 0.00 86 1019.6
20260902043139 60 198 1.7 3.5 0.00 0.00 0.00 86 1019.6
20260902042639 60 152 1.7 5.2 0.00 0.00 0.00 86 1019.6
20260902042139 60 176 1.7 4.3 0.00 0.00 0.00 86 1019.6
20260902041639 60 156 1.7 5.2 0.00 0.00 0.00 86 1019.6
20260902041138 60 163 1.7 3.5 0.00 0.00 0.00 86 1019.6
20260902040638 60 149 1.7 4.3 0.00 0.00 0.00 86 1019.6
20260902040138 60 165 0.9 2.6 0.00 0.00 0.00 86 1019.7
20260902035638 60 180 1.7 3.5 0.00 0.00 0.00 86 1019.8
20260902035137 60 191 1.7 4.3 0.00 0.00 0.00 85 1019.7
20260902034637 60 163 1.7 5.2 0.00 0.00 0.00 85 1019.8
20260902034137 60 172 1.7 4.3 0.00 0.00 0.00 85 1019.8
20260902033637 60 176 1.7 3.5 0.00 0.00 0.00 85 1019.8
20260902033136 60 139 1.7 3.5 0.00 0.00 0.00 85 1019.8
20260902032636 60 172 0.9 3.5 0.00 0.00 0.00 85 1019.8
20260902032136 60 138 0.0 1.7 0.00 0.00 0.00 85 1019.8
20260902031636 60 163 0.9 2.6 0.00 0.00 0.00 85 1019.9
20260902031136 60 132 0.9 2.6 0.00 0.00 0.00 85 1019.9
20260902030635 60 169 0.9 2.6 0.00 0.00 0.00 85 1019.9
20260902030135 60 142 0.9 2.6 0.00 0.00 0.00 85 1020.0
20260902025635 60 96 0.0 0.0 0.00 0.00 0.00 85 1020.0
20260902025135 60 121 0.0 1.7 0.00 0.00 0.00 85 1020.0
20260902024634 60 124 0.9 2.6 0.00 0.00 0.00 85 1020.1
20260902024134 60 149 1.7 3.5 0.00 0.00 0.00 85 1020.1
20260902023634 60 153 1.7 3.5 0.00 0.00 0.00 85 1020.1
20260902023134 60 179 1.7 3.5 0.00 0.00 0.00 85 1020.2
20260902022633 60 160 1.7 2.6 0.00 0.00 0.00 85 1020.2
20260902022133 59 162 0.9 2.6 0.00 0.00 0.00 85 1020.2
20260902021633 60 211 0.9 2.6 0.00 0.00 0.00 85 1020.1
20260902021133 59 103 0.9 1.7 0.00 0.00 0.00 85 1020.1
20260902020633 59 113 0.0 0.0 0.00 0.00 0.00 85 1020.2
20260902020132 59 113 0.0 0.0 0.00 0.00 0.00 85 1020.2
20260902015631 59 113 0.0 0.0 0.00 0.00 0.00 85 1020.3
20260902015130 59 169 0.0 1.7 0.00 0.00 0.00 85 1020.3
20260902014630 59 158 0.9 2.6 0.00 0.00 0.00 85 1020.3
20260902014130 59 146 0.9 2.6 0.00 0.00 0.00 85 1020.4
20260902013630 59 152 0.0 0.0 0.00 0.00 0.00 85 1020.4
20260902013129 59 167 0.9 2.6 0.00 0.00 0.00 85 1020.4
20260902012629 59 173 0.9 2.6 0.00 0.00 0.00 85 1020.4
20260902012129 59 169 0.0 1.7 0.00 0.00 0.00 85 1020.3
20260902011629 59 165 0.9 1.7 0.00 0.00 0.00 85 1020.4
20260902011128 59 143 0.9 1.7 0.00 0.00 0.00 85 1020.3
20260902010628 59 177 0.9 2.6 0.00 0.00 0.00 85 1020.4
20260902010128 59 170 0.9 1.7 0.00 0.00 0.00 85 1020.4
20260902005628 59 179 0.9 1.7 0.00 0.00 0.00 85 1020.4
20260902005127 59 177 0.9 2.6 0.00 0.00 0.00 85 1020.3
20260902004627 59 142 0.0 0.9 0.00 0.00 0.00 84 1020.3
20260902004127 59 158 0.0 0.9 0.00 0.00 0.00 84 1020.5
20260902003627 59 172 0.9 2.6 0.00 0.00 0.00 84 1020.5
20260902003127 59 170 0.9 1.7 0.00 0.00 0.00 84 1020.5
20260902002626 59 188 0.9 2.6 0.00 0.00 0.00 84 1020.5
20260902002126 60 172 1.7 2.6 0.00 0.00 0.00 84 1020.5
20260902001626 60 153 0.9 1.7 0.00 0.00 0.00 84 1020.5
20260902001126 59 190 0.0 1.7 0.00 0.00 0.00 84 1020.5
20260902000625 59 156 0.0 0.9 0.00 0.00 0.00 84 1020.5
20260902000125 59 177 0.9 2.6 0.00 0.00 0.00 84 1020.5
20260901235625 59 162 0.0 0.0 0.00 0.00 0.00 84 1020.5
20260901235125 59 170 0.9 1.7 0.00 0.00 0.00 84 1020.6
20260901234625 59 179 0.0 1.7 0.00 0.00 0.00 84 1020.6
20260901234124 59 138 0.0 0.0 0.00 0.00 0.00 84 1020.6
20260901233624 59 177 0.0 1.7 0.00 0.00 0.00 84 1020.6
20260901233124 59 156 0.9 1.7 0.00 0.00 0.00 84 1020.7
20260901232624 59 197 0.0 0.9 0.00 0.00 0.00 84 1020.7
20260901232123 59 143 0.0 1.7 0.00 0.00 0.00 84 1020.7
20260901231623 59 172 0.9 2.6 0.00 0.00 0.00 84 1020.8
20260901231123 59 152 0.9 2.6 0.00 0.00 0.00 84 1020.9
20260901230623 59 172 0.9 2.6 0.00 0.00 0.00 84 1020.9
20260901230122 59 169 0.9 1.7 0.00 0.00 0.00 84 1020.9
20260901225622 59 179 0.0 1.7 0.00 0.00 0.00 84 1020.9
20260901225122 59 193 0.9 1.7 0.00 0.00 0.00 84 1020.8
20260901224622 59 117 0.0 0.9 0.00 0.00 0.00 84 1020.8
20260901224121 59 141 0.0 0.9 0.00 0.00 0.00 84 1020.8
20260901223621 59 121 0.0 1.7 0.00 0.00 0.00 83 1020.9
20260901223121 59 142 0.0 0.0 0.00 0.00 0.00 83 1021.0
20260901222621 59 142 0.0 0.0 0.00 0.00 0.00 83 1021.0
20260901222121 59 142 0.0 0.0 0.00 0.00 0.00 83 1020.9
20260901221620 59 142 0.0 0.0 0.00 0.00 0.00 83 1020.9
20260901221120 59 142 0.0 0.0 0.00 0.00 0.00 83 1020.9
20260901220620 59 142 0.0 0.0 0.00 0.00 0.00 83 1020.9
20260901220120 59 136 0.0 1.7 0.00 0.00 0.10 83 1020.9
20260901215619 59 160 0.0 1.7 0.00 0.00 0.10 83 1020.8
20260901215119 59 56 0.0 0.0 0.00 0.00 0.10 83 1020.7
20260901214619 59 148 0.0 1.7 0.00 0.00 0.10 83 1020.8
20260901214119 59 115 0.0 2.6 0.00 0.00 0.10 82 1020.9
20260901213619 59 162 0.9 1.7 0.00 0.00 0.10 82 1021.0
20260901213118 59 118 0.0 0.0 0.00 0.00 0.10 82 1021.3
20260901212618 59 118 0.0 0.0 0.00 0.00 0.10 81 1021.4
20260901212118 59 118 0.0 0.0 0.00 0.00 0.10 81 1021.3
20260901211618 59 118 0.0 0.0 0.00 0.00 0.10 81 1021.4
20260901211117 59 118 0.0 0.0 0.00 0.00 0.10 81 1021.4
20260901210617 60 118 0.0 0.0 0.00 0.00 0.10 80 1021.5
20260901210117 60 118 0.0 0.0 0.00 0.00 0.10 80 1021.4
20260901205617 60 118 0.0 0.0 0.00 0.00 0.10 80 1021.5
20260901205116 60 118 0.0 0.0 0.00 0.00 0.10 79 1021.5
20260901204616 60 118 0.0 0.0 0.00 0.00 0.10 79 1021.4
20260901204116 60 118 0.0 0.0 0.00 0.00 0.10 79 1021.5
20260901203616 61 118 0.0 0.0 0.00 0.00 0.10 78 1021.4
20260901203116 60 118 0.0 0.0 0.00 0.00 0.10 78 1021.3
20260901202615 61 118 0.0 0.0 0.00 0.00 0.10 77 1021.4
20260901202115 61 118 0.0 0.0 0.00 0.00 0.10 77 1021.3
20260901201615 61 118 0.0 0.0 0.00 0.00 0.10 76 1021.3
20260901201115 61 118 0.0 0.0 0.00 0.00 0.10 76 1021.3
20260901200614 62 118 0.0 0.0 0.00 0.00 0.10 75 1021.4
20260901200114 62 118 0.0 0.0 0.00 0.00 0.10 75 1021.3
20260901195614 62 118 0.0 0.0 0.00 0.00 0.10 74 1021.2
20260901195114 62 118 0.0 0.0 0.00 0.00 0.10 74 1021.1
20260901194614 62 118 0.0 0.0 0.00 0.00 0.10 73 1021.1
20260901194113 63 118 0.0 0.0 0.00 0.00 0.10 72 1021.0
20260901193613 63 118 0.0 0.0 0.00 0.00 0.10 71 1020.9
20260901193113 63 118 0.0 0.0 0.00 0.00 0.10 71 1021.0
20260901192613 63 118 0.0 0.0 0.00 0.00 0.10 70 1021.0
20260901192112 64 118 0.0 0.0 0.00 0.00 0.10 70 1021.0
20260901191612 68 205 5.2 7.8 0.00 0.00 0.10 55 1021.1
20260901191112 68 205 5.2 7.8 0.00 0.00 0.10 55 1021.1
20260901190612 68 205 5.2 7.8 0.00 0.00 0.10 55 1021.1
20260901190111 68 205 5.2 7.8 0.00 0.00 0.10 55 1021.1
20260901185611 68 205 5.2 7.8 0.00 0.00 0.10 55 1021.1
20260901185111 68 205 5.2 7.8 0.00 0.00 0.10 55 1021.1
20260901184611 68 205 5.2 7.8 0.00 0.00 0.10 55 1021.1
20260901184111 68 205 5.2 7.8 0.00 0.00 0.10 55 1021.1
20260901183610 68 205 5.2 7.8 0.00 0.00 0.10 55 1021.1
20260901183110 68 205 5.2 7.8 0.00 0.00 0.10 55 1021.1
20260901182610 68 205 5.2 7.8 0.00 0.00 0.10 55 1021.1
20260901182110 68 205 5.2 7.8 0.00 0.00 0.10 55 1021.1
20260901181610 68 205 5.2 7.8 0.00 0.00 0.10 55 1021.1
20260901181109 68 205 5.2 7.8 0.00 0.00 0.10 55 1021.1
20260901180609 68 205 5.2 7.8 0.00 0.00 0.10 55 1021.1
20260901180109 68 205 5.2 7.8 0.00 0.00 0.10 55 1021.1
20260901175608 68 205 5.2 7.8 0.00 0.00 0.10 55 1021.1
20260901175108 68 205 5.2 7.8 0.00 0.00 0.10 55 1021.1
20260901174608 68 205 5.2 7.8 0.00 0.00 0.10 55 1021.1
20260901174108 68 205 5.2 7.8 0.00 0.00 0.10 55 1021.1
20260901173608 68 205 5.2 7.8 0.00 0.00 0.10 55 1021.1
20260901173107 68 205 5.2 7.8 0.00 0.00 0.10 55 1021.1
20260901172607 68 205 5.2 7.8 0.00 0.00 0.10 55 1021.1
20260901172107 68 205 5.2 7.8 0.00 0.00 0.10 55 1021.1
20260901171607 68 205 5.2 7.8 0.00 0.00 0.10 55 1021.1
20260901171107 68 205 5.2 7.8 0.00 0.00 0.10 55 1021.1
20260901170606 68 205 5.2 7.8 0.00 0.00 0.10 55 1021.1